Location: Curupao
(10.4996°N, 66.6442°W)
Time: 23:43:58
(UTC+00:00)

Geosat - Pass Details

Date: 23 May 2024
Orbit: 760 x 763 km, 108.1° (Epoch: 12 June)

Event Time Altitude Azimuth Distance (km) Brightness Sun altitude
Rises 08:52:51 0° 163° (SSE) 3,210 7.1 -16.8°
Reaches altitude 10° 08:55:08 10° 165° (SSE) 2,285 6.3 -16.3°
Maximum altitude 09:00:05 69° 248° (WSW) 809 3.9 -15.2°
Drops below altitude 10° 09:05:02 10° 332° (NNW) 2,286 6.4 -14.1°
Sets 09:07:19 0° 334° (NNW) 3,212 7.2 -13.6°
